Back to catalog

FENGYUN 1C DEB

LostSSO
NORAD 36270·DEBRIS·🇨🇳 China

Launched May 10, 1999 from Taiyuan Satellite Launch Center

Loading…

Next Passes (next 24 hours)

TLE

StaleSource: Space-Track

Epoch: May 19, 2024, 05:56 UTC

1 36270U 99025DWX 24140.24790641  .00014303  00000-0  57102-2 0  9995
2 36270  98.9989 249.7404 0059485 315.7308  43.9122 14.27595966854316

Track FENGYUN 1C DEB in real time with AllMySat

Download on the App Store